Overview Statistics Trail Chart Weather Telemetry Raw packets
 

This is the latest recevied weather packets stored in our database for station/object W8RSN-13. If no packets are shown the sender has not sent any weather packets the latest 10 day(s).

<< 104 105 106 107 108 109 110 >>
Time Temp. Humidity Pressure Rain* Wind** Luminosity Snow
1787900361 27.78° C 65% 1013.1 hPa - - - -
1787900066 27.78° C 65% 1013 hPa - - - -
1787899759 27.78° C 65% 1013 hPa - - - -
1787899459 27.78° C 65% 1012.9 hPa - - - -
1787899158 27.78° C 65% 1013 hPa - - - -
1787898857 27.78° C 64% 1012.9 hPa - - - -
1787898556 27.78° C 63% 1012.8 hPa - - - -
1787898275 28.33° C 62% 1012.9 hPa - - - -
1787897975 28.33° C 59% 1012.9 hPa - - - -
1787897674 28.33° C 58% 1013 hPa - - - -
1787897372 28.33° C 55% 1013 hPa - - - -
1787897072 28.33° C 55% 1013 hPa - - - -
1787896771 28.33° C 54% 1012.8 hPa - - - -
1787896470 28.33° C 55% 1012.8 hPa - - - -
1787896169 28.33° C 55% 1012.9 hPa - - - -
1787895868 28.33° C 54% 1012.9 hPa - - - -
1787895567 28.33° C 53% 1012.7 hPa - - - -
1787895266 28.33° C 52% 1012.8 hPa - - - -
1787894965 28.89° C 53% 1012.8 hPa - - - -
1787894664 28.33° C 53% 1012.9 hPa - - - -
1787894363 28.33° C 51% 1012.8 hPa - - - -
1787894063 28.33° C 54% 1012.8 hPa - - - -
1787893762 28.89° C 54% 1012.8 hPa - - - -
1787893461 28.89° C 56% 1012.7 hPa - - - -
1787893160 28.33° C 56% 1012.8 hPa - - - -

* Rain since midnight (hover to see other rain measurements)
** Current wind speed in m/s (hover to see current wind gust speed)